カタログに戻る

ARIANE 44LP+ R/B

運用中UNKNOWN
NORAD 22913·ROCKET BODY·🇫🇷 France

打ち上げ Nov 20, 1993 から Guiana Space Centre

Loading…

次のパス (今後24時間)

TLE

最新Source: Space-Track

元期: Sep 13, 2026, 23:55 UTC

1 22913U 93073C   26256.99657018  .00227338 -13538-4  12258-2 0  9995
2 22913   6.7327 214.1807 1214820 201.1506 153.3820 13.34692907725347

AllMySatでARIANE 44LP+ R/Bをリアルタイム追跡

Download on the App Store